Greenland, New Hampshire, United States (03840)
Lat: 43.04N, Lon: 70.83W
Wx Zone: NHZ014
Local Info
Past Weather Observations for Thursday, April 16, 2015

NOTE: This archive is for the closest National Weather Service station to Greenland. Information may differ from the station used for current weather conditions.

Click here for Long-term Archive

Time Weather Temperature Dewpoint Humidity Pressure Winds Precip Visibility
23:58
Mostly Cloudy
50°F / 10°C 23°F / -5°C 35% 30.18 in
(1022 mb)
SSE 9.2 mph
(SSE 15 kph)
- 10SM
22:58
Mostly Cloudy
50°F / 10°C 21°F / -6°C 32% 30.18 in
(1022 mb)
SSE 9.2 mph
(SSE 15 kph)
- 10SM
21:58
Mostly Cloudy
50°F / 10°C 19°F / -7°C 30% 30.21 in
(1023 mb)
SW 9.2 mph
(SW 15 kph)
- 10SM
20:58
Mostly Cloudy
46°F / 8°C 27°F / -3°C 46% 30.21 in
(1023 mb)
S 5.8 mph
(S 9 kph)
- 10SM
19:58
Mostly Cloudy
48°F / 9°C 30°F / -1°C 50% 30.24 in
(1024 mb)
SSE 5.8 mph
(SSE 9 kph)
- 10SM
18:58
Mostly Cloudy
46°F / 8°C 32°F / 0°C 57% 30.24 in
(1024 mb)
SE 4.6 mph
(SE 7 kph)
- 10SM
17:58
Mostly Cloudy
46°F / 8°C 30°F / -1°C 53% 30.27 in
(1025 mb)
SE 11.5 mph
(SE 19 kph)
- 10SM
16:58
Mostly Cloudy
50°F / 10°C 23°F / -5°C 35% 30.27 in
(1025 mb)
SSE 15 mph
(SSE 24 kph)
- 10SM
15:58
Mostly Cloudy
50°F / 10°C 21°F / -6°C 32% 30.3 in
(1026 mb)
SE 16.1 mph
(SE 26 kph)
- 10SM
14:58
Mostly Cloudy
52°F / 11°C 23°F / -5°C 32% 30.33 in
(1027 mb)
SSE 16.1 mph
(SSE 26 kph)
- 10SM
13:58
Mostly Cloudy
54°F / 12°C 21°F / -6°C 28% 30.36 in
(1028 mb)
SE 16.1 mph
(SE 26 kph)
- 10SM
12:58
Mostly Cloudy
52°F / 11°C 18°F / -8°C 26% 30.39 in
(1029 mb)
SE 15 mph
(SE 24 kph)
- 10SM
11:58
Partly Cloudy
54°F / 12°C 12°F / -11°C 19% 30.42 in
(1030 mb)
SE 12.7 mph
(SE 20 kph)
- 10SM
10:58
Partly Cloudy
54°F / 12°C 12°F / -11°C 19% 30.45 in
(1031 mb)
ESE 11.5 mph
(ESE 19 kph)
- 10SM
09:58
Partly Cloudy
55°F / 13°C 14°F / -10°C 19% 30.45 in
(1031 mb)
E 8.1 mph
(E 13 kph)
- 10SM
09:42
Partly Cloudy
54°F / 12°C 14°F / -10°C 21% 30.45 in
(1031 mb)
E 3.5 mph
(E 6 kph)
- 10SM
08:58
Partly Cloudy
54°F / 12°C 14°F / -10°C 21% 30.45 in
(1031 mb)
E 4.6 mph
(E 7 kph)
- 10SM
07:58
Partly Cloudy
48°F / 9°C 19°F / -7°C 32% 30.48 in
(1032 mb)
Calm - 10SM
06:58
Partly Cloudy
43°F / 6°C 27°F / -3°C 53% 30.48 in
(1032 mb)
Variable 1.2 mph
(Variable 2 kph)
- 10SM
05:58
Clear
36°F / 2°C 28°F / -2°C 75% 30.45 in
(1031 mb)
W 2.3 mph
(W 4 kph)
- 10SM
04:58
Clear
34°F / 1°C 25°F / -4°C 70% 30.42 in
(1030 mb)
SW 2.3 mph
(SW 4 kph)
- 10SM
03:58
Clear
34°F / 1°C 27°F / -3°C 75% 30.42 in
(1030 mb)
SSW 3.5 mph
(SSW 6 kph)
- 10SM
02:58
Clear
37°F / 3°C 25°F / -4°C 60% 30.39 in
(1029 mb)
NNE 2.3 mph
(NNE 4 kph)
- 10SM
01:58
Clear
37°F / 3°C 27°F / -3°C 65% 30.39 in
(1029 mb)
W 3.5 mph
(W 6 kph)
- 10SM
00:58
Clear
43°F / 6°C 18°F / -8°C 36% 30.36 in
(1028 mb)
NNE 3.5 mph
(NNE 6 kph)
- 10SM
Time Weather Temperature Dewpoint Humidity Pressure Winds Precip Visibility


Weather for websites

WeatherForYou.com, LLC is not responsible for any damages or problems caused by this service. Current weather conditions are obtained from the closest station including government and personal stations which may have varying degrees of accuracy. Weather forecasts are derived from the NOAA NDFD. Like all things, this site belongs to Jesus Christ... He just trusts me to maintain it. If you have any questions or comments email webmaster@weatherforyou.com

Copyright © 2015, WeatherForYou.com LLC. All rights reserved.